Location: Newark
(49.1939°N, 0.8136°E)
Time: 23:03:35
(UTC+00:00)

Envisat - Pass Details

Date: 27 November 2019
Orbit: 764 x 766 km, 98.1° (Epoch: 11 December)

Event Time Altitude Azimuth Distance (km) Brightness Sun altitude
Rises 06:00:59 0° 22° (NNE) 3,243 6.3 -13.2°
Reaches altitude 10° 06:03:35 10° 33° (NNE) 2,312 5.7 -12.7°
Maximum altitude 06:08:02 29° 94° (E) 1,366 5.2 -12.1°
Drops below altitude 10° 06:12:25 10° 154° (SSE) 2,296 6.1 -11.4°
Sets 06:15:00 0° 166° (SSE) 3,217 6.7 -11.0°
